Vertical_Velocity
-8 -2 -1 3 3 2 -4 -3 1 3 4 -5 -7 -13 -16 17 8 7 -0 7 6 1 -6 -3 9 1 -7 -1 -11 -12 -2 13 3 1 -4 -3 0 -3 -3 0 -7 -8 -7 -6 8 5 -6 -5 2 -4 -1 -3 -1 -3
8 15 0 -8 -6 -6 0 -3 -1 3 2 1 20 13 -3 23 11 8 10 6 3 7 -5 6 3 6 10 9 -8 18 -9 7 1 -2 1 -3 -4 -4 -2 -1 -2 0 -3 -5 -10 -2 -6 -1 2 -3 -3 -4 -5 -7
-3 -2 2 7 20 31 35 31 17 15 10 11 13 2 -26 -4 -15 -11 2 4 -4 2 -3 5 8 6 9 3 18 -6 -3 1 0 -8 -8 -7 -4 -4 -7 -4 2 -3 -2 -2 -0 -4 0 1 -5 -3 -5 -4 -3 1
-7 -5 -1 5 10 9 4 5 10 8 16 14 12 9 -5 8 -6 4 8 -9 -6 -3 -7 3 -0 0 -1 1 3 5 -1 -6 -9 -5 -1 -1 -2 -4 -1 1 -2 0 -3 -4 -1 -3 1 -8 -2 -1 -4 -2 1 2
3 4 3 5 1 -5 -10 -10 1 1 -2 -5 -8 1 14 -23 -7 -8 -8 -11 17 18 -27 -3 8 1 3 -3 -4 4 5 5 -2 -0 -3 -2 -2 -1 -2 -1 -4 -12 -4 -6 -6 0 2 2 -3 -2 -0 0 -3 -4
1 3 5 4 3 3 1 1 3 0 -2 3 -2 -6 4 2 5 12 -4 12 5 6 -20 -11 6 3 -1 3 3 -1 -1 -3 -3 -3 -2 -7 -3 -3 -4 -3 -7 -3 -2 -1 -6 0 -0 -1 -5 -3 -1 -1 -0 -2
-1 1 2 -0 -1 2 4 6 6 8 10 8 5 3 4 5 12 8 -7 -8 2 10 -4 -8 4 7 3 4 -1 1 0 -3 -0 -0 -1 -2 -4 -1 -4 -16 5 -2 -0 -5 -1 -1 1 -1 1 -1 -2 2 2 2
1 1 1 2 3 3 1 -0 3 4 4 4 5 8 7 3 3 -3 0 -2 1 7 -2 -6 2 0 1 1 1 4 1 0 -2 -4 -3 -2 -2 -3 -11 3 -4 -1 -0 -0 1 0 -0 -0 -1 -4 5 0 4 -2
2 2 1 1 1 2 2 3 2 2 1 0 0 0 -1 3 -2 -1 0 -3 3 1 -7 -2 -5 -7 1 2 1 -1 -0 -1 -3 -2 1 3 1 -14 3 -1 -4 -1 -2 4 -2 -1 -3 -2 -2 4 4 3 -2 -2
-3 0 1 0 0 1 1 1 2 2 3 3 6 3 3 3 3 3 11 6 5 3 -1 1 1 -4 -0 2 3 1 -0 -2 -2 2 -3 -3 -14 -3 -4 -3 -4 -6 -5 -3 -2 -4 0 1 6 2 3 -5 -2 -2
-12 -9 -5 -1 1 1 -1 -1 0 -2 -2 -1 -4 -4 -3 1 2 -2 -5 -3 -2 -3 -2 1 2 -1 3 2 -4 -4 -2 -1 -2 -1 -4 0 -5 -1 -1 -0 -1 -1 0 0 2 2 4 3 1 2 -2 -2 -1 -2
2 -8 -10 -8 -6 -4 -2 1 -3 3 -0 -2 -3 -0 1 -2 -4 -2 -1 -1 -1 -2 1 5 -2 -2 -3 -1 -1 -0 -2 -1 4 -2 -0 -1 1 -1 -4 -0 1 1 -0 0 4 3 2 1 -0 -2 -0 -2 -2 -0
1 3 -3 -7 -7 -6 -5 -6 -6 -4 -3 -3 -4 -5 -4 -4 -3 -2 -1 1 -0 -0 -0 -2 -4 -1 3 1 -1 -1 0 3 -1 -2 -3 -4 2 2 3 3 1 2 -1 -2 -5 -5 -6 -2 -2 -1 -2 -3 -2 -1
2 3 3 4 2 -0 -0 1 -0 -1 -2 -4 -2 -4 -1 -2 -2 -0 -1 -6 -5 -1 0 -2 -0 -5 -2 -1 -1 -3 -2 -3 1 0 -3 7 3 2 1 -1 -3 -3 -4 -2 -3 -2 -4 -2 -1 -4 -1 -1 -4 -2
1 1 1 1 -0 -1 -4 -7 -8 -7 -7 -4 -2 -2 -1 -1 -0 -2 -1 -1 -0 -1 -1 -2 2 -2 -2 -3 -0 -1 1 -0 -2 -2 1 2 2 -0 -4 -4 -4 -4 -5 -4 -3 -4 -3 -2 -3 -3 1 -1 -3 1
-1 -0 0 -0 0 -0 -2 -2 -3 -7 -9 -5 -4 -3 -1 -0 -1 -2 -1 2 0 1 1 0 -1 -1 -1 -0 -1 -2 -1 -3 0 -1 -2 -3 -3 -4 -5 -4 -1 -2 -3 -1 1 -0 -0 0 2 1 -1 -3 2 -0
1 -0 -1 -2 -3 -3 -2 -3 -5 -5 -4 -4 -4 -3 -1 -1 -1 -1 -1 -0 -0 0 -1 -1 -0 0 -3 -1 -3 -6 -10 -2 -3 -3 -2 -4 -0 2 4 -0 -3 -1 1 1 -0 2 1 1 -0 -1 -3 9 0 14
-1 -1 -1 -1 -2 -3 -3 -2 -3 -2 -1 -1 -2 -2 -1 -0 1 0 -0 -1 -1 -1 0 -2 -2 -1 -3 -4 -5 -4 -2 -0 0 0 1 2 -1 -3 -2 -1 -0 -1 -2 -3 -3 -2 1 1 -1 -2 -3 -2 7 9
1 0 0 -1 -2 -3 -3 -1 -2 -2 -1 -1 -1 -2 -1 -3 -2 -2 -2 -2 -1 0 -1 -2 -2 -7 -12 -5 2 3 2 2 1 1 0 0 0 -0 1 1 -0 -0 0 0 1 -0 -1 -2 -2 -1 1 -1 -1 -2
0 -0 0 0 -1 -3 -4 -3 -2 -2 -1 -2 -1 -2 -1 -1 -1 -0 -1 -1 1 0 -2 -10 -11 2 4 8 6 2 -0 0 -1 -3 -2 2 -1 0 0 1 1 0 0 0 1 -2 1 -4 -5 -3 -1 0 4 4
1 -3 -2 -1 -1 -2 -3 -3 -2 -1 -1 -1 -0 -0 -1 -1 -2 -2 -1 0 -2 -12 -11 -3 3 3 4 1 -0 -1 -2 -2 -2 1 0 -2 -2 -2 -2 -1 -0 0 1 -0 1 -7 -0 0 -1 0 0 -0 1 1
1 -3 -1 -0 1 -1 -2 -2 -2 -1 -1 -2 -1 -0 0 1 1 0 -0 -0 -12 -4 -2 6 2 -0 -3 -3 -2 -3 -1 -1 -1 -2 -1 -0 -1 -1 -2 -2 -2 -2 -2 -0 -0 0 -0 -1 -1 -2 -1 -2 -2 -1
-0 -2 -0 3 -0 -2 -2 -0 -1 -1 -1 -1 0 0 -1 -2 -2 1 -2 -5 -2 2 1 -4 -5 -4 -4 -1 -2 -2 -1 -0 -0 -1 -1 0 -0 0 1 0 1 0 2 -5 1 -1 -1 -0 -2 -1 -0 -0 -1 0
1 0 -2 -2 -1 4 -2 -0 -0 -1 -2 -1 -1 0 -0 -1 -0 -1 -9 -3 5 -1 -0 2 1 2 2 3 2 2 0 0 -1 -2 -0 -1 -0 -3 1 -0 -1 -1 1 0 0 0 -1 -1 -1 0 -0 -1 1 -3
4 -3 0 1 -1 -1 -1 -3 -2 -1 -1 -1 -3 0 -1 -0 -0 -4 -10 -0 1 1 1 2 1 1 1 0 -2 -2 -1 -2 -2 -2 -4 -1 -1 -0 0 2 -0 -0 -1 -2 -2 -2 -1 -1 -1 -0 1 -2 -4 -2
-3 -1 -4 1 1 -0 -4 -3 -2 -2 0 2 -2 -4 -1 1 -2 -4 -8 -1 -4 -2 -1 -1 -1 -1 1 0 0 0 -2 -1 -2 0 -2 -0 -1 0 0 1 1 -2 -3 0 -0 0 0 1 -0 -2 -4 -1 -2 -6
-1 -3 -7 -3 -4 -4 -2 -1 0 1 1 1 -2 1 4 -1 -4 -5 -0 -2 -5 -1 -1 -3 -3 -2 -2 -2 -1 -1 -1 -1 -1 -1 -1 -0 1 0 -0 0 -0 -1 -1 -2 -2 -1 -4 -3 -3 1 -1 2 3 -1
-6 -6 -8 -6 -1 -0 -0 -1 0 -2 -0 -1 -0 -0 -3 -4 -4 4 2 1 1 0 -0 -3 -3 -1 -1 -1 0 -0 -1 -2 -2 -1 -1 -0 -1 -2 -1 -1 -1 -2 -3 -2 -2 -1 -1 -2 -3 -2 -1 -2 1 3
-5 -4 -4 -7 1 1 -3 -2 -3 -5 -4 -4 -6 -1 -4 -2 0 3 2 1 0 1 1 0 1 -0 -2 -2 -1 -1 -1 -0 -0 -2 -2 -0 -1 -4 -1 -1 -1 -2 -1 -1 3 1 2 -0 -2 -3 -1 -2 -1 -1
-1 0 -1 -3 -5 -14 -5 -3 -3 7 -4 -5 2 -1 -6 2 5 4 1 1 3 1 1 8 3 -3 -1 -0 -1 -1 -1 0 -1 -2 -2 -1 -0 1 0 -0 0 -0 -0 0 0 2 6 1 0 1 -1 -1 -0 -1
1 1 -3 -5 -8 -2 -2 -1 1 1 0 -2 -1 1 -4 6 -2 -0 -0 2 5 13 10 2 -2 0 2 -0 -1 -1 -1 -1 -1 -1 -2 -1 1 1 0 -0 0 1 0 -0 -0 -1 -2 -1 -1 -1 1 1 2 -0
-2 -7 -1 -1 2 1 2 -1 0 3 2 5 0 2 -1 5 2 2 2 5 4 0 -1 1 4 2 1 1 1 -1 -1 -1 -1 -2 -0 0 -1 -2 -1 -0 0 -1 -1 -1 -1 -2 -2 -1 -0 0 0 2 1 1
-1 -0 -0 11 4 3 -3 6 -0 -0 0 1 -2 1 0 4 4 3 1 1 1 3 4 3 0 1 1 -0 -1 -1 -1 -1 -1 -0 -0 -2 -1 -1 0 -1 -1 -1 -1 -1 -1 -2 0 0 1 1 0 0 0 0
Height
2744 2744 2746 2750 2756 2761 2765 2769 2774 2780 2785 2792 2799 2810 2822 2829 2838 2849 2857 2864 2872 2877 2883 2888 2894 2894 2901 2907 2913 2923 2933 2937 2942 2948 2953 2958 2965 2970 2975 2979 2981 2984 2990 2992 2995 2997 2993 2989 2992 2997 2995 2993 2993 2993
2754 2753 2752 2754 2759 2763 2767 2771 2777 2782 2789 2795 2802 2810 2822 2829 2836 2846 2854 2862 2866 2875 2879 2885 2889 2896 2902 2908 2913 2922 2925 2931 2934 2942 2946 2953 2959 2965 2971 2976 2977 2981 2981 2982 2983 2984 2983 2984 2986 2985 2986 2986 2986 2985
2772 2771 2768 2768 2769 2771 2772 2775 2781 2785 2790 2796 2804 2811 2822 2830 2837 2843 2851 2859 2865 2871 2879 2887 2891 2898 2902 2910 2918 2919 2925 2931 2932 2938 2946 2952 2957 2962 2966 2970 2971 2973 2972 2975 2977 2978 2981 2980 2980 2980 2979 2980 2979 2977
2784 2782 2782 2782 2782 2783 2784 2786 2789 2794 2798 2803 2809 2816 2824 2831 2836 2842 2847 2855 2864 2870 2877 2886 2893 2899 2905 2911 2917 2923 2928 2930 2934 2940 2945 2948 2952 2957 2963 2964 2966 2966 2966 2969 2970 2974 2975 2975 2975 2974 2974 2974 2973 2971
2801 2799 2798 2796 2795 2795 2795 2795 2798 2801 2805 2809 2814 2820 2827 2831 2841 2847 2853 2860 2868 2873 2872 2886 2897 2902 2907 2913 2920 2924 2928 2930 2935 2939 2942 2946 2949 2955 2956 2958 2960 2958 2961 2962 2964 2968 2969 2970 2968 2968 2969 2968 2967 2965
2813 2812 2811 2811 2810 2811 2812 2813 2814 2816 2818 2821 2825 2830 2836 2843 2850 2855 2857 2867 2871 2875 2878 2890 2900 2903 2910 2916 2920 2923 2926 2929 2933 2936 2939 2942 2946 2951 2951 2952 2953 2953 2953 2956 2960 2962 2962 2962 2963 2963 2963 2962 2960 2958
2822 2821 2821 2821 2821 2821 2822 2823 2825 2826 2829 2832 2835 2840 2845 2851 2856 2858 2861 2867 2873 2878 2881 2892 2899 2904 2909 2914 2918 2922 2924 2927 2930 2932 2935 2939 2942 2945 2943 2945 2947 2946 2948 2951 2953 2953 2955 2957 2958 2958 2958 2956 2955 2953
2831 2830 2829 2828 2828 2829 2830 2831 2832 2834 2836 2838 2842 2845 2849 2852 2858 2861 2866 2871 2876 2883 2885 2889 2897 2905 2909 2914 2918 2919 2921 2924 2927 2930 2933 2936 2937 2938 2937 2937 2941 2942 2944 2945 2946 2948 2950 2951 2952 2953 2951 2951 2950 2948
2837 2836 2836 2835 2835 2835 2836 2836 2837 2839 2841 2844 2846 2850 2853 2857 2861 2865 2870 2874 2880 2884 2884 2889 2894 2902 2908 2912 2915 2919 2921 2923 2926 2928 2931 2932 2932 2930 2933 2934 2936 2937 2939 2940 2942 2944 2945 2947 2948 2946 2946 2946 2944 2942
2842 2842 2841 2841 2841 2841 2841 2842 2843 2844 2846 2848 2851 2853 2857 2861 2865 2869 2874 2877 2880 2881 2884 2887 2893 2898 2906 2909 2912 2917 2918 2921 2924 2927 2926 2926 2924 2926 2928 2930 2932 2934 2936 2937 2937 2939 2942 2943 2942 2942 2942 2940 2938 2937
2845 2845 2845 2845 2844 2845 2845 2846 2847 2849 2851 2852 2854 2856 2860 2864 2867 2870 2873 2877 2880 2883 2886 2890 2895 2898 2904 2908 2911 2915 2918 2921 2923 2925 2925 2925 2922 2923 2924 2926 2927 2929 2930 2933 2935 2936 2937 2937 2937 2937 2935 2933 2931 2929
2846 2845 2846 2847 2847 2848 2849 2851 2851 2854 2854 2856 2858 2860 2863 2866 2869 2872 2874 2878 2880 2884 2887 2891 2895 2899 2904 2908 2912 2915 2917 2919 2922 2921 2922 2920 2919 2919 2920 2922 2923 2925 2928 2930 2931 2932 2933 2933 2932 2931 2929 2926 2925 2923
2849 2849 2850 2850 2851 2852 2853 2854 2855 2856 2857 2859 2861 2863 2865 2868 2870 2872 2874 2877 2879 2881 2886 2890 2895 2900 2904 2908 2910 2912 2914 2917 2917 2918 2918 2915 2916 2917 2918 2920 2922 2923 2925 2927 2928 2928 2927 2926 2924 2923 2921 2920 2918 2915
2852 2853 2854 2855 2856 2857 2857 2857 2857 2857 2859 2860 2861 2864 2867 2868 2870 2872 2874 2876 2879 2883 2888 2892 2896 2900 2902 2905 2907 2910 2912 2914 2916 2915 2912 2912 2912 2913 2915 2918 2919 2921 2921 2922 2922 2921 2920 2918 2916 2914 2913 2911 2909 2907
2853 2855 2856 2857 2858 2859 2860 2860 2860 2860 2860 2861 2863 2865 2867 2869 2870 2872 2875 2878 2881 2885 2889 2892 2895 2898 2901 2903 2905 2907 2909 2910 2910 2909 2909 2909 2910 2912 2913 2915 2916 2917 2917 2916 2915 2913 2911 2908 2906 2904 2903 2900 2898 2896
2854 2856 2857 2858 2858 2859 2860 2860 2860 2860 2861 2862 2864 2866 2868 2870 2872 2875 2878 2881 2883 2886 2889 2892 2894 2897 2899 2900 2901 2903 2906 2905 2905 2905 2907 2908 2909 2910 2911 2911 2911 2910 2908 2907 2905 2903 2900 2898 2896 2893 2891 2889 2887 2885
2854 2856 2857 2858 2858 2858 2859 2859 2859 2859 2861 2864 2866 2867 2869 2872 2874 2877 2879 2882 2884 2887 2889 2891 2892 2894 2896 2897 2899 2900 2900 2902 2902 2903 2904 2904 2905 2905 2905 2904 2903 2901 2899 2897 2894 2892 2889 2887 2884 2882 2879 2879 2875 2873
2854 2855 2856 2857 2858 2859 2859 2859 2859 2860 2862 2864 2866 2868 2870 2872 2875 2877 2879 2882 2884 2885 2887 2889 2890 2891 2893 2894 2895 2896 2897 2897 2898 2899 2899 2899 2898 2897 2896 2894 2892 2890 2888 2886 2883 2881 2878 2876 2873 2871 2867 2865 2862 2860
2852 2854 2855 2856 2857 2858 2859 2860 2861 2861 2862 2863 2865 2868 2870 2872 2874 2876 2878 2880 2882 2883 2885 2886 2887 2886 2888 2890 2891 2892 2892 2893 2893 2892 2892 2890 2889 2888 2886 2884 2882 2880 2878 2875 2873 2871 2868 2864 2861 2858 2855 2852 2849 2845
2850 2852 2854 2855 2857 2857 2858 2860 2860 2861 2862 2863 2865 2867 2869 2871 2872 2874 2875 2877 2878 2879 2879 2879 2879 2882 2884 2885 2885 2886 2886 2886 2885 2884 2883 2882 2880 2878 2876 2874 2872 2869 2867 2864 2861 2858 2856 2851 2847 2843 2840 2836 2832 2829
2848 2849 2852 2854 2855 2857 2858 2858 2859 2861 2862 2863 2864 2865 2867 2868 2869 2870 2871 2872 2873 2872 2872 2873 2875 2876 2877 2877 2878 2878 2878 2877 2876 2876 2874 2872 2871 2869 2866 2864 2861 2858 2855 2852 2848 2843 2840 2836 2831 2827 2823 2820 2817 2814
2846 2847 2850 2851 2853 2854 2856 2857 2858 2859 2861 2861 2862 2863 2864 2865 2865 2866 2867 2866 2865 2865 2866 2868 2868 2868 2868 2869 2870 2870 2870 2869 2869 2867 2866 2864 2862 2859 2856 2853 2850 2846 2842 2838 2835 2830 2825 2820 2817 2813 2810 2807 2805 2802
2842 2845 2847 2850 2852 2852 2854 2854 2855 2856 2857 2858 2859 2860 2861 2862 2862 2862 2861 2860 2860 2861 2860 2860 2861 2862 2863 2863 2863 2863 2863 2862 2860 2858 2856 2853 2851 2848 2845 2841 2838 2834 2830 2825 2821 2817 2812 2809 2805 2802 2799 2797 2794 2791
2839 2842 2844 2846 2848 2848 2849 2850 2851 2853 2854 2854 2856 2857 2857 2858 2858 2856 2855 2855 2855 2855 2855 2855 2855 2856 2856 2857 2857 2856 2856 2854 2852 2850 2847 2844 2840 2837 2834 2830 2827 2822 2818 2813 2809 2805 2802 2799 2796 2793 2789 2786 2783 2780
2838 2839 2841 2839 2841 2843 2844 2846 2847 2849 2851 2852 2853 2854 2853 2854 2853 2851 2850 2850 2849 2848 2848 2849 2850 2851 2852 2852 2851 2850 2849 2847 2844 2841 2838 2835 2831 2827 2822 2819 2815 2811 2807 2803 2799 2796 2793 2789 2785 2782 2778 2775 2771 2767
2829 2831 2832 2831 2834 2837 2839 2841 2842 2844 2846 2847 2848 2848 2849 2849 2848 2846 2845 2845 2845 2845 2846 2847 2848 2849 2848 2846 2844 2843 2841 2838 2835 2832 2827 2824 2820 2817 2813 2809 2805 2802 2797 2794 2790 2786 2783 2779 2774 2770 2766 2762 2757 2751
2820 2819 2822 2825 2828 2832 2834 2836 2838 2840 2840 2841 2842 2843 2844 2844 2842 2843 2842 2842 2842 2843 2843 2842 2842 2841 2839 2837 2836 2834 2832 2829 2825 2822 2818 2814 2810 2807 2804 2800 2797 2793 2789 2785 2781 2776 2771 2766 2761 2756 2751 2746 2742 2737
2810 2812 2817 2822 2824 2827 2829 2831 2833 2835 2836 2837 2838 2838 2839 2838 2839 2839 2839 2838 2838 2838 2837 2836 2834 2833 2830 2828 2826 2824 2822 2818 2815 2811 2808 2805 2801 2798 2794 2791 2787 2784 2779 2775 2770 2765 2760 2754 2749 2743 2738 2732 2728 2725
2803 2807 2813 2815 2819 2822 2822 2824 2826 2828 2831 2831 2832 2832 2832 2832 2833 2832 2832 2831 2831 2830 2829 2828 2826 2824 2822 2819 2817 2815 2812 2809 2805 2802 2799 2796 2792 2788 2785 2782 2778 2774 2769 2765 2761 2755 2749 2743 2738 2733 2727 2722 2717 2712
2797 2802 2806 2809 2811 2811 2814 2818 2818 2822 2822 2823 2824 2824 2824 2824 2824 2824 2823 2823 2823 2822 2820 2819 2816 2814 2812 2810 2808 2806 2803 2799 2796 2794 2790 2787 2784 2781 2777 2773 2769 2764 2760 2754 2749 2744 2738 2732 2727 2722 2716 2711 2706 2701
2792 2798 2799 2800 2801 2804 2807 2810 2812 2812 2813 2813 2814 2814 2815 2815 2814 2813 2814 2814 2813 2813 2811 2809 2808 2806 2804 2802 2800 2797 2794 2791 2788 2785 2782 2779 2776 2772 2768 2764 2759 2755 2749 2744 2738 2732 2727 2722 2717 2712 2707 2702 2697 2691
2786 2788 2791 2793 2795 2797 2799 2801 2803 2804 2805 2806 2805 2805 2805 2805 2804 2803 2804 2804 2804 2803 2802 2801 2800 2798 2796 2795 2792 2789 2785 2783 2780 2777 2774 2771 2768 2764 2760 2756 2751 2746 2741 2736 2730 2725 2720 2714 2709 2704 2699 2694 2689 2685
2778 2782 2785 2788 2789 2790 2792 2795 2795 2795 2796 2797 2797 2797 2797 2797 2797 2796 2795 2796 2796 2795 2794 2793 2793 2791 2789 2787 2784 2781 2778 2776 2773 2770 2767 2764 2761 2756 2752 2748 2743 2738 2734 2729 2724 2719 2714 2709 2704 2699 2694 2689 2685 2681